FIN2KE EDDH-EFHK

Flight info

Callsign FIN2KE
Flight time N/A
Altitude 39000
Route LUGEG3G/33 LUGEG P605 MOSAT DCT TIDVU DCT KAL DCT NEREN DCT ALAMI DCT OKEVU DCT EVADI Y370 DIVAM
Aircraft E190/M-SDE3GILORVW/S

Departure

Time 2026-04-23 18:08
Airport Hamburg Helmut Schmidt Airport (EDDH)

Arrival

Time N/A
Airport Helsinki Vantaa Airport (EFHK)
Time Latitude Longitude Altitude Speed Heading
2026-04-23 17:48 53.63358 10.00360 51 ft 0 kts 85°
2026-04-23 17:49 53.62794 9.99348 52 ft 0 kts 243°
2026-04-23 17:50 53.62794 9.99347 51 ft 0 kts 243°
2026-04-23 17:51 53.62794 9.99348 51 ft 0 kts 243°
2026-04-23 18:01 53.62800 9.99366 48 ft 2 kts 240°
2026-04-23 18:01 53.62808 9.99390 47 ft 2 kts 241°
2026-04-23 18:02 53.62817 9.99414 51 ft 2 kts 240°
2026-04-23 18:02 53.62826 9.99437 45 ft 2 kts 224°
2026-04-23 18:02 53.62839 9.99454 50 ft 2 kts 167°
2026-04-23 18:02 53.62848 9.99449 46 ft 0 kts 148°
2026-04-23 18:05 53.62843 9.99453 49 ft 3 kts 152°
2026-04-23 18:05 53.62802 9.99488 51 ft 13 kts 154°
2026-04-23 18:05 53.62711 9.99565 51 ft 15 kts 152°
2026-04-23 18:06 53.62634 9.99649 51 ft 11 kts 121°
2026-04-23 18:06 53.62630 9.99703 51 ft 0 kts 83°
2026-04-23 18:06 53.62634 9.99741 52 ft 12 kts 78°
2026-04-23 18:07 53.62685 9.99872 53 ft 14 kts 17°
2026-04-23 18:07 53.62738 9.99848 51 ft 0 kts 328°
2026-04-23 18:07 53.62742 9.99846 51 ft 2 kts 334°
2026-04-23 18:07 53.62763 9.99829 52 ft 6 kts 334°
2026-04-23 18:08 53.62976 9.99635 50 ft 71 kts 332°
2026-04-23 18:08 53.63620 9.99075 51 ft 134 kts 333°
2026-04-23 18:08 53.64591 9.98262 198 ft 168 kts 333°
2026-04-23 18:08 53.65605 9.97471 1032 ft 159 kts 331°
2026-04-23 18:09 53.66579 9.96675 1857 ft 147 kts 332°
2026-04-23 18:09 53.67440 9.95923 2642 ft 133 kts 332°
2026-04-23 18:09 53.68256 9.95211 3177 ft 136 kts 334°
2026-04-23 18:09 53.69151 9.94770 3754 ft 132 kts 353°
2026-04-23 18:10 53.70046 9.94739 4381 ft 124 kts 355°
2026-04-23 18:10 53.70964 9.94889 4678 ft 145 kts
2026-04-23 18:10 53.71945 9.95643 4983 ft 166 kts 27°
2026-04-23 18:10 53.72825 9.96968 5214 ft 174 kts 42°
2026-04-23 18:11 53.73521 9.98833 5405 ft 199 kts 56°
2026-04-23 18:11 53.74266 10.00844 5722 ft 205 kts 47°
2026-04-23 18:11 53.75126 10.02834 6031 ft 216 kts 47°
2026-04-23 18:11 53.76076 10.04985 6156 ft 241 kts 47°
2026-04-23 18:12 53.77139 10.07351 6504 ft 261 kts 49°
2026-04-23 18:12 53.78110 10.10021 7129 ft 271 kts 56°
2026-04-23 18:12 53.78960 10.12898 7827 ft 276 kts 59°
2026-04-23 18:12 53.79766 10.15867 8520 ft 280 kts 60°
2026-04-23 18:13 53.80573 10.18886 9229 ft 283 kts 60°
2026-04-23 18:13 53.81400 10.21925 9937 ft 287 kts 60°
2026-04-23 18:13 53.82254 10.25005 10218 ft 290 kts 60°
2026-04-23 18:13 53.83124 10.28099 10829 ft 291 kts 59°